Weather History for Haleyville, AL

Change the Weather History Date:

Wednesday, November 7, 2012

  Actual Average (KJFX) Record (KJFX)
Temperature  
Mean Temperature 43 °F -  
Max Temperature 53 °F 63 °F 78 °F (1978)
Min Temperature 33 °F 35 °F 23 °F (1967)
Degree Days  
Heating Degree Days 22    
Moisture  
Dew Point 38 °F    
Average Humidity 81    
Maximum Humidity 100    
Minimum Humidity 58    
Precipitation  
Precipitation 0.00 in - - ()
Sea Level Pressure  
Sea Level Pressure 30.08 in    
Wind  
Wind Speed 3 mph (NW)    
Max Wind Speed 15 mph    
Max Gust Speed 20 mph    
Visibility 9 miles    
Events      
Averages and records for this station are not official NWS values.
T = Trace of Precipitation, MM = Missing Value Source: NWS Daily Summary

Daily Weather History Graph

Daily Weather History Graph

Search for Another Location

Airport:

Trip Planner

Search our weather history database for the weather conditions in past years. The results will help you decide how hot, cold, wet, or windy it might be!

Date:

Astronomy

Nov. 07, 2012 Rise Set
Actual Time 6:16 AM CST 4:51 PM CST
Civil Twilight 5:50 AM CST 5:17 PM CST
Nautical Twilight 5:20 AM CST 5:47 PM CST
Astronomical Twilight 4:50 AM CST 6:17 PM CST
Moon No Moon Rise 12:44 PM CST (11/7)
Length of Visible Light 11h 27m
Length of Day
10h 35m
Last Quarter, 43% of the Moon is Illuminated
Nov 7
Last Quarter
Nov 13
New
Nov 20
First Quarter
Nov 28
Full
Dec 6
Last Quarter

Hourly Weather History & Observations

Time (CST) Temp. Windchill Dew Point Humidity Pressure Visibility Wind Dir Wind Speed Gust Speed Precip Events Conditions
12:56 AM 43.9 °F - 39.9 °F 86% 30.03 in 10.0 mi Calm Calm - N/A   Clear
1:56 AM 41.9 °F - 39.9 °F 93% 30.01 in 6.0 mi Calm Calm - N/A   Clear
2:56 AM 43.0 °F 40.3 °F 41.0 °F 93% 30.01 in 8.0 mi Variable 4.6 mph - N/A   Overcast
3:56 AM 41.9 °F - 39.9 °F 93% 30.01 in 8.0 mi Calm Calm - N/A   Scattered Clouds
4:56 AM 41.0 °F - 38.8 °F 92% 30.02 in 7.0 mi Calm Calm - N/A   Clear
5:56 AM 39.9 °F - 38.8 °F 96% 30.02 in 6.0 mi Calm Calm - N/A   Clear
6:56 AM 39.9 °F - 39.9 °F 100% 30.04 in 4.0 mi Calm Calm - N/A   Mostly Cloudy
7:56 AM 43.9 °F 41.3 °F 39.9 °F 86% 30.05 in 10.0 mi NW 4.6 mph - N/A   Clear
8:56 AM 48.9 °F - 39.9 °F 71% 30.05 in 10.0 mi Variable 4.6 mph - N/A   Clear
9:56 AM 52.0 °F - 41.0 °F 66% 30.04 in 10.0 mi Variable 5.8 mph - N/A   Partly Cloudy
10:19 AM 53.6 °F - 42.8 °F 67% 30.01 in 10.0 mi Calm Calm - N/A   Mostly Cloudy
10:30 AM 53.6 °F - 39.2 °F 58% 30.00 in 10.0 mi WNW 8.1 mph - N/A   Mostly Cloudy
10:56 AM 52.0 °F - 38.8 °F 61% 30.03 in 10.0 mi West 9.2 mph - N/A   Mostly Cloudy
11:56 AM 50.0 °F - 37.9 °F 63% 30.02 in 10.0 mi NW 8.1 mph - N/A   Overcast
12:56 PM 48.9 °F - 36.0 °F 61% 30.03 in 10.0 mi NNW 13.8 mph 17.3 mph 0.00 in   Overcast
1:56 PM 48.9 °F - 34.9 °F 58% 30.03 in 10.0 mi NNW 11.5 mph - N/A   Overcast
2:56 PM 48.9 °F - 34.9 °F 58% 30.06 in 10.0 mi NNW 15.0 mph 19.6 mph N/A   Mostly Cloudy
3:56 PM 46.9 °F - 34.9 °F 63% 30.09 in 10.0 mi North 12.7 mph - 0.00 in   Overcast
4:56 PM 43.0 °F - 36.0 °F 76% 30.11 in 10.0 mi Calm Calm - N/A   Clear
5:56 PM 39.9 °F - 36.0 °F 86% 30.14 in 10.0 mi Calm Calm - N/A   Clear
6:56 PM 39.9 °F - 36.0 °F 86% 30.15 in 10.0 mi Calm Calm - N/A   Scattered Clouds
7:56 PM 38.8 °F - 36.0 °F 89% 30.17 in 10.0 mi Calm Calm - N/A   Clear
8:56 PM 37.9 °F - 34.9 °F 89% 30.18 in 10.0 mi Calm Calm - N/A   Clear
9:56 PM 37.9 °F - 36.0 °F 93% 30.18 in 10.0 mi Calm Calm - N/A   Clear
10:56 PM 36.0 °F - 34.9 °F 96% 30.19 in 8.0 mi Calm Calm - N/A   Clear
11:41 PM 33.8 °F - 33.8 °F 100% 30.17 in 2.0 mi Calm Calm - N/A   Clear
11:56 PM 34.0 °F - 34.0 °F 100% 30.20 in 3.0 mi Calm Calm - N/A   Clear